Weather History for Camarillo, CA

Change the Weather History Date:

Friday, October 25, 2013

  Actual Average Record
Temperature  
Mean Temperature 62 °F 62 °F  
Max Temperature 69 °F 73 °F 88 °F (1983)
Min Temperature 54 °F 52 °F 40 °F (1961)
Degree Days  
Heating Degree Days 3 4  
Month to date heating degree days 68 67  
Since 1 July heating degree days 73 99  
Cooling Degree Days 0 1  
Month to date cooling degree days 41 25  
Year to date cooling degree days 623 308  
Growing Degree Days 12 (Base 50)    
Moisture  
Dew Point 54 °F    
Average Humidity 78    
Maximum Humidity 93    
Minimum Humidity 63    
Precipitation  
Precipitation 0.00 in 0.03 in 0.37 in (1951)
Month to date precipitation T 0.42  
Year to date precipitation 2.19 11.64  
Since 1 July precipitation 0.04 0.66  
Sea Level Pressure  
Sea Level Pressure 30.09 in    
Wind  
Wind Speed 4 mph (NW)    
Max Wind Speed 12 mph    
Max Gust Speed 21 mph    
Visibility 6 miles    
Events      
T = Trace of Precipitation, MM = Missing Value Source: NWS Daily Summary

Daily Weather History Graph

Daily Weather History Graph

Search for Another Location

Airport:

Trip Planner

Search our weather history database for the weather conditions in past years. The results will help you decide how hot, cold, wet, or windy it might be!

Date:

Astronomy

Oct. 25, 2013 Rise Set
Actual Time 7:10 AM PDT 6:10 PM PDT
Civil Twilight 6:44 AM PDT 6:35 PM PDT
Nautical Twilight 6:15 AM PDT 7:04 PM PDT
Astronomical Twilight 5:46 AM PDT 7:34 PM PDT
Moon 11:37 PM PDT (10/25) 12:49 PM PDT (10/25)
Length of Visible Light 11h 50m
Length of Day
10h 59m
Waning Gibbous, 61% of the Moon is Illuminated
Oct 25
Waning Gibbous
Oct 26
Last Quarter
Nov 3
New
Nov 9
First Quarter
Nov 17
Full

Hourly Weather History & Observations

Time (PDT) Temp. Dew Point Humidity Pressure Visibility Wind Dir Wind Speed Gust Speed Precip Events Conditions
12:09 AM 60.8 °F 53.6 °F 77% 30.05 in 8.0 mi North 4.6 mph - N/A   Overcast
12:55 AM 60.1 °F 53.1 °F 78% 30.09 in 8.0 mi North 4.6 mph - N/A   Mostly Cloudy
1:55 AM 60.1 °F 53.1 °F 78% 30.09 in 7.0 mi NNE 4.6 mph - N/A   Overcast
2:55 AM 60.1 °F 53.1 °F 78% 30.09 in 7.0 mi NE 5.8 mph - N/A   Overcast
3:55 AM 59.0 °F 53.1 °F 81% 30.09 in 6.0 mi Calm Calm - N/A   Haze
4:55 AM 57.9 °F 53.1 °F 84% 30.10 in 5.0 mi NNW 9.2 mph - N/A   Haze
5:55 AM 57.9 °F 53.1 °F 84% 30.11 in 5.0 mi North 6.9 mph - N/A   Haze
6:55 AM 59.0 °F 53.1 °F 81% 30.10 in 5.0 mi ENE 4.6 mph - N/A   Haze
7:55 AM 57.9 °F 53.1 °F 84% 30.13 in 4.0 mi Calm Calm - N/A   Haze
8:55 AM 59.0 °F 54.0 °F 83% 30.15 in 3.0 mi Calm Calm - N/A   Haze
9:55 AM 59.0 °F 54.0 °F 83% 30.16 in 3.0 mi Variable 3.5 mph - N/A   Haze
10:55 AM 60.1 °F 54.0 °F 80% 30.15 in 4.0 mi WNW 3.5 mph - N/A   Haze
11:55 AM 61.0 °F 54.0 °F 78% 30.15 in 4.0 mi WNW 3.5 mph - N/A   Haze
12:55 PM 63.0 °F 54.0 °F 72% 30.13 in 4.0 mi SSW 3.5 mph - N/A   Haze
1:35 PM 62.6 °F 53.6 °F 72% 30.07 in 5.0 mi SW 3.5 mph - N/A   Haze
1:42 PM 64.4 °F 53.6 °F 68% 30.07 in 5.0 mi Calm Calm - N/A   Haze
1:55 PM 64.9 °F 54.0 °F 68% 30.09 in 5.0 mi WSW 4.6 mph - N/A   Haze
2:55 PM 68.0 °F 55.0 °F 63% 30.06 in 6.0 mi WSW 3.5 mph - N/A   Haze
3:55 PM 68.0 °F 55.9 °F 65% 30.05 in 6.0 mi West 6.9 mph - N/A   Haze
4:55 PM 64.9 °F 55.9 °F 73% 30.04 in 7.0 mi West 8.1 mph - N/A   Clear
5:55 PM 62.1 °F 55.0 °F 78% 30.05 in 8.0 mi West 6.9 mph - N/A   Clear
6:55 PM 60.1 °F 55.0 °F 83% 30.06 in 9.0 mi WSW 4.6 mph - N/A   Clear
7:55 PM 60.1 °F 55.0 °F 83% 30.07 in 8.0 mi Calm Calm - N/A   Partly Cloudy
8:55 PM 57.9 °F 54.0 °F 87% 30.07 in 8.0 mi NNE 4.6 mph - N/A   Clear
9:55 PM 55.0 °F 52.0 °F 89% 30.09 in 7.0 mi WNW 4.6 mph - N/A   Clear
10:55 PM 55.9 °F 53.1 °F 90% 30.10 in 6.0 mi Calm Calm - N/A   Clear
11:55 PM 55.9 °F 52.0 °F 87% 30.09 in 5.0 mi ENE 5.8 mph - N/A   Scattered Clouds